Wisconsin Rapids, WI

8:05 PM CST on December 11, 2017 (GMT -0600)
Alexander Field South Wood County

Weather History for KISW - June, 2013

Change the Weather History Date:

Wednesday, June 19, 2013

  Actual Average Record
Temperature  
Mean Temperature 62 °F -  
Max Temperature 79 °F 77 °F 96 °F (1953)
Min Temperature 46 °F 53 °F 38 °F (1970)
Degree Days  
Heating Degree Days 4    
Growing Degree Days 12 (Base 50)    
Moisture  
Dew Point 49 °F    
Average Humidity 63    
Maximum Humidity 93    
Minimum Humidity 39    
Precipitation  
Precipitation 0.00 in - - ()
Sea Level Pressure  
Sea Level Pressure 30.11 in    
Wind  
Wind Speed 2 mph (SSW)    
Max Wind Speed 7 mph    
Max Gust Speed -    
Visibility 10 miles    
Events      
Averages and records for this station are not official NWS values.
T = Trace of Precipitation, MM = Missing Value Source: NWS Daily Summary

Daily Weather History Graph

Daily Weather History Graph

Search for Another Location

Airport or City:

Trip Planner

Search our weather history database for the weather conditions in past years. The results will help you decide how hot, cold, wet, or windy it might be!

Date:

Astronomy

Jun. 19, 2013 Rise Set
Actual Time 5:14 AM CDT 8:46 PM CDT
Civil Twilight 4:38 AM CDT 9:23 PM CDT
Nautical Twilight 3:49 AM CDT 10:12 PM CDT
Astronomical Twilight 2:46 AM CDT 11:14 PM CDT
Moon 4:33 PM CDT (6/19) 2:07 AM CDT (6/19)
Length of Visible Light 16h 45m
Length of Day
15h 32m
Waxing Gibbous, 80% of the Moon is Illuminated
Jun 19
Waxing Gibbous
Jun 23
Full
Jun 29
Last Quarter
Jul 8
New
Jul 15
First Quarter

Hourly Weather History & Observations

Time (CDT) Temp. Dew Point Humidity Pressure Visibility Wind Dir Wind Speed Gust Speed Precip Events Conditions
12:54 AM 51.1 °F 46.0 °F 83% 30.14 in 10.0 mi Calm Calm - N/A   Clear
1:54 AM 48.9 °F 46.0 °F 90% 30.13 in 10.0 mi Calm Calm - N/A   Clear
2:54 AM 48.9 °F 46.0 °F 90% 30.14 in 10.0 mi Calm Calm - N/A   Clear
3:54 AM 46.0 °F 44.1 °F 93% 30.14 in 10.0 mi Calm Calm - N/A   Clear
4:54 AM 46.9 °F 45.0 °F 93% 30.13 in 10.0 mi Calm Calm - N/A   Clear
5:54 AM 46.9 °F 44.1 °F 90% 30.14 in 10.0 mi Calm Calm - N/A   Clear
6:54 AM 53.1 °F 48.9 °F 86% 30.16 in 10.0 mi Calm Calm - N/A   Clear
7:54 AM 60.1 °F 45.0 °F 57% 30.16 in 10.0 mi Calm Calm - N/A   Unknown
8:54 AM 64.0 °F 45.0 °F 50% 30.16 in 10.0 mi SSE 3.5 mph - N/A   Clear
9:54 AM 66.0 °F 45.0 °F 47% 30.15 in 10.0 mi Variable 3.5 mph - N/A   Overcast
10:54 AM 71.1 °F 45.0 °F 39% 30.14 in 10.0 mi WSW 6.9 mph - N/A   Clear
11:54 AM 73.0 °F 48.0 °F 41% 30.14 in 10.0 mi WSW 6.9 mph - N/A   Clear
12:54 PM 73.9 °F 48.0 °F 40% 30.12 in 10.0 mi Calm Calm - N/A   Clear
1:54 PM 77.0 °F 50.0 °F 39% 30.11 in 10.0 mi WSW 6.9 mph - N/A   Clear
2:54 PM 77.0 °F 50.0 °F 39% 30.09 in 10.0 mi West 5.8 mph - N/A   Partly Cloudy
3:54 PM 77.0 °F 51.1 °F 40% 30.08 in 10.0 mi SSW 5.8 mph - N/A   Scattered Clouds
4:54 PM 75.0 °F 51.1 °F 43% 30.07 in 10.0 mi SSW 4.6 mph - N/A   Scattered Clouds
5:54 PM 77.0 °F 52.0 °F 42% 30.07 in 10.0 mi South 5.8 mph - N/A   Partly Cloudy
6:54 PM 75.0 °F 54.0 °F 48% 30.06 in 10.0 mi SSW 3.5 mph - N/A   Clear
7:54 PM 73.0 °F 57.0 °F 57% 30.06 in 10.0 mi Calm Calm - N/A   Clear
8:54 PM 66.9 °F 57.0 °F 70% 30.06 in 10.0 mi Calm Calm - N/A   Clear
9:54 PM 62.1 °F 55.9 °F 80% 30.07 in 10.0 mi Calm Calm - N/A   Clear
10:54 PM 64.9 °F 54.0 °F 68% 30.08 in 10.0 mi South 5.8 mph - N/A   Clear
11:54 PM 59.0 °F 54.0 °F 83% 30.09 in 10.0 mi SSE 3.5 mph - N/A   Clear